This demonstration page uses our WeatherBlox Daily Observations layout. Learn more.

Left ArrowRight Arrow

44.8408, -93.29828

Hourly Observations for September 23, 2020

Temp ( °F °C ) Dew Point ( °F °C ) Humidity (%) Winds ( mph kmh ) Pressure ( in mb ) Visibility ( mi km ) Precip ( " mm )
12:53 am 00:53 Clear 65 18.3 57 13.9 76 76 SE 5 7 29.97 1015 10 16 0.00 0.00
1:53 am 01:53 Clear 64 17.8 56 13.3 75 75 SE 3 6 29.97 1015 10 16 0.00 0.00
2:53 am 02:53 Clear 63 17.2 55 12.8 76 76 S 5 7 29.97 1015 10 16 0.00 0.00
3:53 am 03:53 Clear 64 17.8 55 12.8 73 73 SSW 7 11 29.96 1015 10 16 0.00 0.00
4:53 am 04:53 Clear 64 17.8 54 12.2 70 70 SSW 6 9 29.96 1015 10 16 0.00 0.00
5:53 am 05:53 Clear 63 17.2 54 12.2 73 73 SSW 5 7 29.95 1014 10 16 0.00 0.00
6:53 am 06:53 Mostly Clear 63 17.2 54 12.2 73 73 S 6 9 29.96 1014 10 16 0.00 0.00
7:53 am 07:53 Mostly Sunny 60 15.6 56 13.3 86 86 SE 5 7 29.96 1015 8 13 0.00 0.00
8:53 am 08:53 Mostly Sunny 64 17.8 56 13.3 75 75 SSE 3 6 29.96 1014 10 16 0.00 0.00
9:53 am 09:53 Mostly Sunny 68 20 57 13.9 68 68 Calm 29.96 1015 10 16 0.00 0.00
10:53 am 10:53 Mostly Sunny 73 22.8 58 14.4 59 59 SSW 7 11 29.95 1014 10 16 0.00 0.00
11:53 am 11:53 Mostly Sunny 78 25.6 60 15.6 54 54 SSE 8 13 29.93 1014 10 16 0.00 0.00
12:53 pm 12:53 Mostly Sunny 80 26.7 60 15.6 51 51 S 7 11 29.91 1013 10 16 0.00 0.00
1:53 pm 13:53 Mostly Sunny 82 27.8 57 13.9 42 42 SSW 13 20 29.90 1012 10 16 0.00 0.00
2:53 pm 14:53 Mostly Sunny 82 27.8 58 14.4 44 44 SSW 10 17 29.88 1012 10 16 0.00 0.00
3:53 pm 15:53 Mostly Sunny 84 28.9 59 15 43 43 WSW 7 11 29.87 1012 10 16 0.00 0.00
4:53 pm 16:53 Mostly Cloudy with Light Rain 81 27.2 61 16.1 51 51 WSW 7 11 29.88 1012 10 16 0.00 0.00
5:53 pm 17:53 Mostly Cloudy 82 27.8 58 14.4 44 44 SSW 8 13 29.86 1011 10 16 0.00 0.00
6:53 pm 18:53 Mostly Cloudy 78 25.6 59 15 52 52 S 5 7 29.87 1012 10 16 0.00 0.00
7:53 pm 19:53 Mostly Cloudy 77 25 60 15.6 56 56 S 5 7 29.87 1011 10 16 0.00 0.00
8:53 pm 20:53 Partly Cloudy 75 23.9 59 15 58 58 S 9 15 29.86 1011 10 16 0.00 0.00
9:53 pm 21:53 Mostly Cloudy 75 23.9 57 13.9 54 54 S 9 15 29.85 1011 10 16 0.00 0.00
10:53 pm 22:53 Mostly Cloudy 74 23.3 57 13.9 56 56 SW 5 7 29.86 1011 10 16 0.00 0.00
11:53 pm 23:53 Mostly Cloudy 72 22.2 56 13.3 57 57 SSW 5 7 29.84 1011 10 16 0.00 0.00

Powered by AerisWeather